Regional Weather Roundup
Issued by NWS Goodland, KS

Home | Current Version | Previous Version | Graphics & Text | Print | Product List | Glossary On
Versions: 1 2 3 4 5 6 7 8 9 10 11 12 13 14 15 16 17 18 19 20 21 22 23 24 25 26 27 28 29 30 31 32 33 34 35 36 37 38 39 40 41 42 43 44 45 46 47 48 49 50
000
ASUS43 KGLD 240159
RWRGLD

GOODLAND FORECAST AREA HOURLY WEATHER ROUNDUP
NATIONAL WEATHER SERVICE GOODLAND KS
800 PM MDT WED APR 23 2014

...OFFICIAL OBSERVATIONS...

CITY           SKY/WX    TMP DP  RH WIND       PRES   REMARKS
GOODLAND KS    CLOUDY    63  23  21 N29G46    29.61R
HILL CITY KS   MOCLDY    60  53  77 N15       29.49R
IMPERIAL NEB   MOCLDY    60  28  29 NW37G52   29.65R HAZE
MCCOOK NEB     CLOUDY    65  41  41 N26G38    29.56R
AKRON CO       LGT RAIN  43  37  79 N37G45    29.76R
BURLINGTON CO  CLOUDY    58  28  32 N33G43    29.66R
LIMON CO       CLOUDY    43  37  79 N37G52    29.71R
$$

...UNOFFICIAL OBSERVATIONS...

CITY           SKY/WX    TMP DP  RH WIND       PRES   REMARKS
COLBY KS       PTCLDY    66  43  42 N16G26    29.58R
LENORA KS        N/A     57  32  39 N12         N/A
LEOTI KS         N/A     74  32  21 S21         N/A
NORTON KS      RAIN      57  52  82 SE9       29.50R
SHARON SPRINGS   N/A     69  43  39 N26G35      N/A
WAKEENEY KS      N/A     74  42  30 MISG        N/A
TRENTON NEB      N/A     68  32  26 N20G26      N/A
KIT CARSON CO    N/A     55  33  44 MISG        N/A
$$



USA.gov is the U.S. government's official web portal to all federal, state and local government web resources and services.